View from above orbital plane
|
View from above satellite
|
Ground track
|
The orbit data is extracted from the following two-line orbital elements,
1 19531U 88089A 21016.75776219 -.00000027 00000-0 69179-5 0 9993
2 19531 98.4056 30.0651 0010376 224.5650 135.4691 14.15266446667736
Epoch (UTC): | 16 January 2021 18:11:10 |
Eccentricity: | 0.0010376 |
inclination: | 98.4056° |
perigee height: | 834 km |
apogee height: | 849 km |
right ascension of ascending node: | 30.0651° |
argument of perigee: | 224.5650° |
revolutions per day: | 14.15266446 |
mean anomaly at epoch: | 135.4691° |
orbit number at epoch: | 66773 |
The dashed part of the orbit path shows where the satellite is in the earth's shadow,
|
|